When you browse on this site, cookies collect data to enhance your experience and personalize the content and advertising you see.
Visit our Privacy Policy to learn more. By continuing to use the site, you agree to this use of cookies and data.
  • en France
  • Liste des pays
  • À 7 jours
  • Température de l'eau
  • Carte satellitaire
  • Carte météo
  • Widgets météo
  • user-avatar
    Se connecter

    Météo par heure à Kipungo

    Ce jour, 22 Janvier, Mardi

    Heure Température Précipitation Vent Pression Humidité
    00:00 +21°C° 0.1 mm 1 m/s 653 mmHg 93%
    01:00 +20°C° 0.1 mm 1 m/s 653 mmHg 93%
    02:00 +20°C° 0.2 mm 1 m/s 653 mmHg 94%
    03:00 +20°C° 0.2 mm 1 m/s 653 mmHg 94%
    04:00 +18°C° 0.2 mm 0 m/s 653 mmHg 95%
    05:00 +20°C° 0.7 mm 1 m/s 653 mmHg 94%
    06:00 +20°C° 0.7 mm 1 m/s 654 mmHg 93%
    07:00 +20°C° 0.7 mm 1 m/s 654 mmHg 93%
    08:00 +22°C° 0.4 mm 1 m/s 654 mmHg 88%
    09:00 +23°C° 0.4 mm 1 m/s 655 mmHg 84%
    10:00 +24°C° 0.4 mm 1 m/s 655 mmHg 79%
    11:00 +25°C° 1.1 mm 1 m/s 655 mmHg 74%
    12:00 +26°C° 1.1 mm 1 m/s 654 mmHg 68%
    13:00 +27°C° 1.1 mm 1 m/s 654 mmHg 63%
    14:00 +28°C° 0 mm 1 m/s 654 mmHg 59%
    15:00 +29°C° 0 mm 1 m/s 654 mmHg 54%
    16:00 +30°C° 0 mm 1 m/s 653 mmHg 50%
    17:00 +28°C° 0.1 mm 1 m/s 653 mmHg 56%
    18:00 +27°C° 0.1 mm 1 m/s 653 mmHg 62%
    19:00 +25°C° 0.1 mm 1 m/s 653 mmHg 68%
    20:00 +24°C° 0.6 mm 1 m/s 653 mmHg 75%
    21:00 +23°C° 0.6 mm 1 m/s 653 mmHg 83%
    22:00 +20°C° 0.6 mm 2 m/s 653 mmHg 90%
    23:00 +21°C° 0.8 mm 1 m/s 653 mmHg 92%

    Demain, 23 Janvier, Mercredi

    Heure Température Précipitation Vent Pression Humidité
    00:00 +21°C° 0.8 mm 1 m/s 653 mmHg 93%
    01:00 +20°C° 0.8 mm 1 m/s 653 mmHg 95%
    02:00 +19°C° 0.2 mm 2 m/s 653 mmHg 95%
    03:00 +19°C° 0.2 mm 2 m/s 653 mmHg 95%
    04:00 +19°C° 0.2 mm 2 m/s 653 mmHg 94%
    05:00 +19°C° 0.8 mm 2 m/s 653 mmHg 94%
    06:00 +19°C° 0.8 mm 3 m/s 653 mmHg 93%
    07:00 +19°C° 0.8 mm 3 m/s 654 mmHg 93%
    08:00 +20°C° 0.7 mm 2 m/s 654 mmHg 91%
    09:00 +20°C° 0.7 mm 2 m/s 654 mmHg 89%
    10:00 +21°C° 0.7 mm 1 m/s 654 mmHg 87%
    11:00 +25°C° 0 mm 1 m/s 654 mmHg 72%
    12:00 +29°C° 0 mm 1 m/s 655 mmHg 57%
    13:00 +33°C° 0 mm 1 m/s 655 mmHg 41%
    14:00 +32°C° 0 mm 1 m/s 654 mmHg 43%
    15:00 +31°C° 0 mm 1 m/s 653 mmHg 45%
    16:00 +30°C° 0 mm 1 m/s 653 mmHg 47%
    17:00 +28°C° 0 mm 1 m/s 653 mmHg 53%
    18:00 +26°C° 0 mm 1 m/s 653 mmHg 59%
    19:00 +25°C° 0 mm 1 m/s 653 mmHg 65%
    20:00 +24°C° 0 mm 2 m/s 653 mmHg 71%
    21:00 +23°C° 0 mm 2 m/s 653 mmHg 76%
    22:00 +21°C° 0 mm 2 m/s 654 mmHg 81%
    23:00 +20°C° 0 mm 2 m/s 653 mmHg 85%

    Après-demain, 24 Janvier, Jeudi

    Heure Température Précipitation Vent Pression Humidité
    00:00 +19°C° 0 mm 2 m/s 653 mmHg 89%
    01:00 +19°C° 0 mm 2 m/s 652 mmHg 93%
    02:00 +18°C° 0 mm 2 m/s 652 mmHg 93%
    03:00 +19°C° 0 mm 1 m/s 652 mmHg 94%
    04:00 +19°C° 0 mm 1 m/s 651 mmHg 94%
    05:00 +19°C° 0 mm 1 m/s 652 mmHg 92%
    06:00 +20°C° 0 mm 1 m/s 652 mmHg 89%
    07:00 +20°C° 0 mm 1 m/s 653 mmHg 87%
    08:00 +24°C° 0 mm 1 m/s 654 mmHg 71%
    09:00 +28°C° 0 mm 1 m/s 655 mmHg 56%
    10:00 +30°C° 0 mm 0 m/s 656 mmHg 40%
    11:00 +32°C° 0 mm 1 m/s 655 mmHg 36%
    12:00 +33°C° 0 mm 1 m/s 655 mmHg 33%
    13:00 +35°C° 0 mm 2 m/s 654 mmHg 29%
    14:00 +35°C° 0 mm 2 m/s 653 mmHg 28%
    15:00 +35°C° 0 mm 2 m/s 653 mmHg 27%
    16:00 +34°C° 0 mm 2 m/s 652 mmHg 26%
    17:00 +31°C° 0 mm 2 m/s 652 mmHg 32%
    18:00 +29°C° 0 mm 1 m/s 652 mmHg 38%
    19:00 +26°C° 0 mm 1 m/s 651 mmHg 44%
    20:00 +25°C° 0 mm 1 m/s 652 mmHg 50%
    21:00 +24°C° 0 mm 2 m/s 652 mmHg 56%
    22:00 +22°C° 0 mm 3 m/s 653 mmHg 61%
    23:00 +23°C° 0 mm 2 m/s 652 mmHg 66%

    25 Janvier, Vendredi

    Heure Température Précipitation Vent Pression Humidité
    00:00 +21°C° 0 mm 2 m/s 652 mmHg 71%
    01:00 +20°C° 0 mm 2 m/s 652 mmHg 77%
    02:00 +20°C° 0 mm 2 m/s 651 mmHg 78%
    03:00 +20°C° 0 mm 1 m/s 651 mmHg 79%
    04:00 +20°C° 0 mm 1 m/s 651 mmHg 81%
    05:00 +20°C° 0 mm 1 m/s 652 mmHg 79%
    06:00 +21°C° 0 mm 1 m/s 652 mmHg 76%
    07:00 +22°C° 0 mm 1 m/s 653 mmHg 74%
    08:00 +25°C° 0 mm 1 m/s 654 mmHg 63%
    09:00 +29°C° 0 mm 1 m/s 655 mmHg 52%
    10:00 +33°C° 0 mm 1 m/s 656 mmHg 41%
    11:00 +33°C° 0 mm 1 m/s 655 mmHg 37%
    12:00 +35°C° 0 mm 2 m/s 655 mmHg 33%
    13:00 +35°C° 0 mm 3 m/s 654 mmHg 29%
    14:00 +35°C° 0 mm 2 m/s 653 mmHg 31%
    15:00 +34°C° 0 mm 2 m/s 653 mmHg 33%
    16:00 +34°C° 0 mm 2 m/s 652 mmHg 34%
    17:00 +31°C° 0 mm 2 m/s 652 mmHg 40%
    18:00 +29°C° 0 mm 1 m/s 652 mmHg 46%
    19:00 +27°C° 0 mm 1 m/s 652 mmHg 52%
    20:00 +26°C° 0 mm 1 m/s 653 mmHg 55%
    21:00 +25°C° 0 mm 2 m/s 653 mmHg 59%
    22:00 +25°C° 0 mm 2 m/s 654 mmHg 62%
    23:00 +24°C° 0 mm 2 m/s 654 mmHg 67%

    26 Janvier, Samedi

    Heure Température Précipitation Vent Pression Humidité
    00:00 +22°C° 0 mm 3 m/s 653 mmHg 71%
    01:00 +22°C° 0 mm 3 m/s 653 mmHg 76%
    02:00 +21°C° 0 mm 2 m/s 653 mmHg 81%
    03:00 +20°C° 0 mm 2 m/s 652 mmHg 86%
    04:00 +20°C° 0 mm 1 m/s 652 mmHg 90%
    05:00 +20°C° 0 mm 2 m/s 653 mmHg 88%
    06:00 +20°C° 0 mm 2 m/s 653 mmHg 85%
    07:00 +21°C° 0 mm 2 m/s 654 mmHg 82%
    08:00 +25°C° 0 mm 1 m/s 655 mmHg 69%
    09:00 +28°C° 0 mm 1 m/s 656 mmHg 56%
    10:00 +31°C° 0 mm 1 m/s 657 mmHg 42%
    11:00 +32°C° 0 mm 1 m/s 657 mmHg 38%
    12:00 +33°C° 0 mm 1 m/s 656 mmHg 34%
    13:00 +36°C° 0 mm 2 m/s 656 mmHg 30%
    14:00 +33°C° 0 mm 1 m/s 655 mmHg 33%
    15:00 +32°C° 0 mm 1 m/s 654 mmHg 36%
    16:00 +31°C° 0 mm 1 m/s 653 mmHg 39%
    17:00 +30°C° 0 mm 1 m/s 654 mmHg 42%
    18:00 +29°C° 0 mm 1 m/s 654 mmHg 45%
    19:00 +28°C° 0 mm 2 m/s 654 mmHg 48%
    20:00 +26°C° 0 mm 2 m/s 654 mmHg 55%
    21:00 +25°C° 0 mm 2 m/s 654 mmHg 61%
    22:00 +24°C° 0 mm 3 m/s 654 mmHg 68%
    23:00 +22°C° 0.1 mm 3 m/s 654 mmHg 74%

    27 Janvier, Dimanche

    Heure Température Précipitation Vent Pression Humidité
    00:00 +21°C° 0.1 mm 2 m/s 654 mmHg 80%
    01:00 +21°C° 0.1 mm 2 m/s 653 mmHg 87%
    02:00 +20°C° 0 mm 2 m/s 653 mmHg 88%
    03:00 +20°C° 0 mm 2 m/s 653 mmHg 90%
    04:00 +20°C° 0 mm 1 m/s 652 mmHg 91%
    05:00 +21°C° 0 mm 1 m/s 653 mmHg 88%
    06:00 +21°C° 0 mm 1 m/s 653 mmHg 85%
    07:00 +22°C° 0 mm 1 m/s 654 mmHg 82%
    08:00 +25°C° 0 mm 1 m/s 654 mmHg 69%
    09:00 +28°C° 0 mm 1 m/s 655 mmHg 55%
    10:00 +31°C° 0 mm 2 m/s 656 mmHg 42%
    11:00 +32°C° 0 mm 2 m/s 655 mmHg 40%
    12:00 +34°C° 0 mm 2 m/s 655 mmHg 37%
    13:00 +35°C° 0 mm 2 m/s 654 mmHg 35%
    14:00 +34°C° 0 mm 2 m/s 654 mmHg 36%
    15:00 +34°C° 0 mm 2 m/s 653 mmHg 37%
    16:00 +32°C° 0 mm 1 m/s 653 mmHg 38%
    17:00 +31°C° 0 mm 1 m/s 653 mmHg 43%
    18:00 +29°C° 0 mm 1 m/s 653 mmHg 48%
    19:00 +27°C° 0 mm 1 m/s 653 mmHg 53%
    20:00 +25°C° 1.4 mm 1 m/s 653 mmHg 65%
    21:00 +23°C° 1.4 mm 2 m/s 653 mmHg 76%
    22:00 +21°C° 1.4 mm 2 m/s 653 mmHg 88%
    23:00 +20°C° 0.2 mm 2 m/s 653 mmHg 89%
    Voir plus